Regional Weather Roundup
Issued by NWS

Home | Current Version | Previous Version | Graphics & Text | Print | Product List | Glossary On
Versions: 1 2 3 4 5 6 7 8 9 10 11 12 13 14 15 16 17 18 19 20 21 22 23 24 25 26 27 28 29 30 31 32 33 34 35 36 37 38 39 40 41 42 43 44 45 46 47 48 49 50
000
ASUS45 KCYS 221110
RWRWY

WYOMING REGIONAL WEATHER ROUNDUP
NATIONAL WEATHER SERVICE CHEYENNE WY
400 AM MST SAT NOV 22 2014

NOTE:  "FAIR" INDICATES FEW OR NO CLOUDS BELOW 12,000 FEET
WITH NO SIGNIFICANT WEATHER AND/OR OBSTRUCTIONS TO VISIBILITY.

WYZ001-221200-
YELLOWSTONE NATIONAL PARK

CITY           SKY/WX    TMP DP  RH WIND       PRES   REMARKS
LK YELLOWSTONE   N/A     29  23  78 VRB7      29.77F WCI  22
W YELLOWSTONE  NOT AVBL

$$
WYZ002>013-054>058-071-098>099-221200-
NORTHERN WYOMING

CITY           SKY/WX    TMP DP  RH WIND       PRES   REMARKS
JACKSON        CLOUDY    30  28  93 SW12      29.82F WCI  21
CODY           CLOUDY    45  25  45 W14G36    29.60R
GREYBULL       MOCLDY    14  12  92 SW3       29.63F
WORLAND        MOCLDY    14  11  87 E7        29.62F WCI   4
SHERIDAN       CLOUDY    28  22  78 CALM      29.51F
BUFFALO        CLOUDY    40  17  39 NW9       29.53F WCI  34
GILLETTE       PTCLDY    39  24  55 SW18      29.54F WCI  30
HULETT           N/A    N/A N/A N/A MISG        N/A
NEWCASTLE      FAIR      32  23  69 SE12      29.66F WCI  23

$$
WYZ014>020-022>026-101>103-221200-
CENTRAL WYOMING

CITY           SKY/WX    TMP DP  RH WIND       PRES   REMARKS
BIG PINEY      CLOUDY    19  16  88 CALM      29.89F
PINEDALE       CLOUDY    21  21 100 NW3       29.89F
DUBOIS         FAIR      32  21  64 NW20G26   29.73F WCI  20
LANDER         NOT AVBL
RIVERTON       MOCLDY    30  17  58 CALM      29.70F
CASPER         CLOUDY    38  20  48 SW28G37   29.66F WCI  26
DOUGLAS        MOCLDY    53  21  28 S5        29.69F

$$
WYZ021-027>030-104>119-221200-
SOUTHERN WYOMING

CITY           SKY/WX    TMP DP  RH WIND       PRES   REMARKS
EVANSTON       PTCLDY    33  22  63 SW22      29.92F WCI  21
KEMMERER       MOSUNNY   28  21  74 SW3       29.91R
FORT BRIDGER   FAIR      33  24  70 SW9       29.92F WCI  25
ROCK SPRINGS   CLOUDY    34  17  50 W20       29.89F WCI  23
DIXON          FAIR      32  19  59 SW6       30.00F WCI  27
RAWLINS        CLOUDY    36  17  46 SW15G24   29.86F WCI  27
SARATOGA       FAIR      34  19  55 SW16G24   29.92F WCI  23
LARAMIE        PTCLDY    33  14  45 SW21G31   29.85F WCI  21
CHEYENNE       PTCLDY    30  14  51 W8        29.83F WCI  22
TORRINGTON     CLEAR     22  17  81 E9        29.76F WCI  12
PINE BLUFFS    FAIR      27  18  69 SW8       29.83F WCI  18

$$


USA.gov is the U.S. government's official web portal to all federal, state and local government web resources and services.